This demonstration page uses our WeatherBlox Daily Observations layout. Learn more.

Left ArrowRight Arrow

38.88101, -77.10428

Hourly Observations for July 2, 2016

Temp ( °F °C ) Dew Point ( °F °C ) Humidity (%) Winds ( mph kmh ) Pressure ( in mb ) Visibility ( mi km ) Precip ( " mm )
12:05 am 00:05 Mostly Clear 74 23.3 71 21.7 91 91 SSW 5 7 29.97 1015 10 16.0934 0 0
12:52 am 00:52 Mostly Clear 74 23.3 71 21.7 91 91 SW 6 9 29.96 1014 10 16.0934 0 0
1:52 am 01:52 Clear 73 22.8 70 21.1 90 90 S 6 9 29.96 1015 10 16.0934 0 0
2:52 am 02:52 Clear 74 23.3 61 16.1 64 64 NW 9 15 29.95 1014 10 16.0934 0 0
3:52 am 03:52 Clear 73 22.8 60 15.6 64 64 NNW 7 11 29.96 1015 10 16.0934 0 0
4:52 am 04:52 Clear 70 21.1 61 16.1 73 73 N 6 9 29.98 1015 10 16.0934 0 0
5:52 am 05:52 Mostly Sunny 70 21.1 60 15.6 71 71 NNW 7 11 30.02 1017 10 16.0934 0 0
6:31 am 06:31 Partly Cloudy 71 21.7 59 15 66 66 NW 8 13 30.03 1017 10 16.0934 0 0
6:52 am 06:52 Partly Cloudy 71 21.7 58 14.4 63 63 NNW 9 15 30.05 1018 10 16.0934 0 0
7:52 am 07:52 Partly Cloudy 73 22.8 58 14.4 59 59 NNW 10 17 30.07 1018 10 16.0934 0 0
8:52 am 08:52 Partly Cloudy 74 23.3 55 12.8 52 52 NNW 9 15 30.09 1019 10 16.0934 0 0
9:52 am 09:52 Partly Cloudy 75 23.9 54 12.2 48 48 N 14 22 30.09 1019 10 16.0934 0 0
10:52 am 10:52 Partly Cloudy 76 24.4 53 11.7 45 45 NW 16 26 30.09 1019 10 16.0934 0 0
11:52 am 11:52 Mostly Cloudy 78 25.6 55 12.8 45 45 WNW 13 20 30.09 1019 10 16.0934 0 0
12:52 pm 12:52 Partly Cloudy 79 26.1 53 11.7 41 41 NNW 15 24 30.09 1019 10 16.0934 0 0
1:52 pm 13:52 Mostly Cloudy 79 26.1 51 10.6 38 38 NW 13 20 30.08 1019 10 16.0934 0 0
2:52 pm 14:52 Mostly Cloudy 79 26.1 52 11.1 39 39 N 13 20 30.08 1019 10 16.0934 0 0
3:52 pm 15:52 Mostly Cloudy 79 26.1 52 11.1 39 39 N 12 19 30.07 1018 10 16.0934 0 0
4:52 pm 16:52 Mostly Cloudy 80 26.7 52 11.1 38 38 NNW 14 22 30.07 1018 10 16.0934 0 0
5:52 pm 17:52 Mostly Cloudy 80 26.7 52 11.1 38 38 NNW 16 26 30.09 1019 10 16.0934 0 0
6:52 pm 18:52 Mostly Cloudy 77 25 50 10 39 39 N 8 13 30.08 1019 10 16.0934 0 0
7:52 pm 19:52 Mostly Cloudy 77 25 50 10 39 39 N 6 9 30.09 1019 10 16.0934 0 0
8:52 pm 20:52 Mostly Cloudy 76 24.4 52 11.1 43 43 N 7 11 30.1 1019 10 16.0934 0 0
9:52 pm 21:52 Cloudy 76 24.4 53 11.7 45 45 NNE 6 9 30.12 1020 10 16.0934 0 0
10:52 pm 22:52 Cloudy 75 23.9 55 12.8 50 50 ENE 6 9 30.13 1020 10 16.0934 0 0
11:52 pm 23:52 Cloudy 75 23.9 53 11.7 46 46 NE 7 11 30.11 1020 10 16.0934 0 0

Powered by AerisWeather